Zurück zum Katalog

STARLINK-38241

AktivKommunikationSSO
NORAD 100225·PAYLOAD·🇺🇸 United States

Gestartet Aug 4, 2026 von Vandenberg Space Force Base

Loading…

Nächste Überflüge (nächste 24 Stunden)

TLE

AktuellSource: Space-Track

Epoche: Sep 14, 2026, 14:45 UTC

1 A0225U 26177N   26257.61461530  .00014097  00000-0  26030-3 0  9995
2 A0225  97.2833 308.4221 0001732  91.3039 268.8411 15.49199377  7520

Verfolge STARLINK-38241 in Echtzeit mit AllMySat

Download on the App Store